Time,TemperatureF,DewpointF,PressureIn,WindDirection,WindDirectionDegrees,WindSpeedMPH,WindSpeedGustMPH,Humidity,HourlyPrecipIn,Conditions,Clouds,dailyrainin,SoftwareType,DateUTC
2014-04-06 00:02:00,33.8,29.8,30.15,SSW,200,0.0,1.0,85,0.00,,,0.00,Wunderground v.1.15,2014-04-06 05:02:00,
2014-04-06 00:04:00,34.0,29.7,30.14,SSW,200,0.0,1.0,84,0.00,,,0.00,Wunderground v.1.15,2014-04-06 05:04:00,
2014-04-06 00:06:00,34.1,29.8,30.14,SSW,200,0.0,2.0,84,0.00,,,0.00,Wunderground v.1.15,2014-04-06 05:06:00,
2014-04-06 00:08:00,34.2,29.9,30.15,SSW,200,0.0,2.0,84,0.00,,,0.00,Wunderground v.1.15,2014-04-06 05:08:00,
2014-04-06 00:12:00,34.4,30.1,30.15,SSW,200,1.0,3.0,84,0.00,,,0.00,Wunderground v.1.15,2014-04-06 05:12:00,
2014-04-06 00:14:00,34.5,30.2,30.14,SSW,200,1.0,3.0,84,0.00,,,0.00,Wunderground v.1.15,2014-04-06 05:14:00,
2014-04-06 00:18:00,34.8,30.2,30.14,SSW,200,2.0,3.0,83,0.00,,,0.00,Wunderground v.1.15,2014-04-06 05:18:00,
2014-04-06 00:20:00,34.9,30.3,30.14,SSW,200,2.0,2.0,83,0.00,,,0.00,Wunderground v.1.15,2014-04-06 05:20:00,
2014-04-06 00:22:00,35.0,30.1,30.14,SSW,200,2.0,2.0,82,0.00,,,0.00,Wunderground v.1.15,2014-04-06 05:22:00,
2014-04-06 00:24:00,35.1,30.2,30.14,SSW,200,2.0,2.0,82,0.00,,,0.00,Wunderground v.1.15,2014-04-06 05:24:00,
2014-04-06 00:26:00,35.3,30.1,30.14,SSW,200,2.0,3.0,81,0.00,,,0.00,Wunderground v.1.15,2014-04-06 05:26:00,
2014-04-06 00:32:00,35.7,30.1,30.15,SSW,200,2.0,2.0,80,0.00,,,0.00,Wunderground v.1.15,2014-04-06 05:32:00,
2014-04-06 00:34:00,35.9,30.0,30.15,SSW,200,2.0,2.0,79,0.00,,,0.00,Wunderground v.1.15,2014-04-06 05:34:00,
2014-04-06 00:36:00,36.1,29.9,30.15,SSW,200,2.0,3.0,78,0.00,,,0.00,Wunderground v.1.15,2014-04-06 05:36:00,
2014-04-06 00:40:00,36.3,30.1,30.14,SSW,200,2.0,2.0,78,0.00,,,0.00,Wunderground v.1.15,2014-04-06 05:40:00,
2014-04-06 00:42:00,36.5,30.0,30.14,SSW,200,2.0,2.0,77,0.00,,,0.00,Wunderground v.1.15,2014-04-06 05:42:00,
2014-04-06 00:46:00,36.6,29.7,30.14,SSW,200,2.0,2.0,76,0.00,,,0.00,Wunderground v.1.15,2014-04-06 05:46:00,
2014-04-06 00:50:00,36.8,29.9,30.14,SSW,200,2.0,2.0,76,0.00,,,0.00,Wunderground v.1.15,2014-04-06 05:50:00,
2014-04-06 00:52:00,36.8,29.9,30.14,SSW,200,2.0,2.0,76,0.00,,,0.00,Wunderground v.1.15,2014-04-06 05:52:00,
2014-04-06 00:54:00,36.9,30.0,30.14,SSW,200,2.0,2.0,76,0.00,,,0.00,Wunderground v.1.15,2014-04-06 05:54:00,
2014-04-06 00:56:00,36.9,29.7,30.14,SSW,200,2.0,2.0,75,0.00,,,0.00,Wunderground v.1.15,2014-04-06 05:56:00,
2014-04-06 00:58:00,36.9,29.7,30.14,SSW,200,2.0,2.0,75,0.00,,,0.00,Wunderground v.1.15,2014-04-06 05:58:00,
2014-04-06 01:02:00,36.8,29.6,30.13,SSW,200,2.0,2.0,75,0.00,,,0.00,Wunderground v.1.15,2014-04-06 06:02:00,
2014-04-06 01:04:00,36.8,29.6,30.13,SSW,200,2.0,2.0,75,0.00,,,0.00,Wunderground v.1.15,2014-04-06 06:04:00,
2014-04-06 01:06:00,36.8,29.6,30.13,SSW,200,1.0,2.0,75,0.00,,,0.00,Wunderground v.1.15,2014-04-06 06:06:00,
2014-04-06 01:10:00,36.8,29.6,30.14,SSW,200,1.0,2.0,75,0.00,,,0.00,Wunderground v.1.15,2014-04-06 06:10:00,
2014-04-06 01:14:00,36.7,29.5,30.14,SSW,200,1.0,2.0,75,0.00,,,0.00,Wunderground v.1.15,2014-04-06 06:14:00,
2014-04-06 01:16:00,36.6,29.4,30.14,SSW,200,1.0,2.0,75,0.00,,,0.00,Wunderground v.1.15,2014-04-06 06:16:00,
2014-04-06 01:18:00,36.5,29.3,30.13,SSW,200,1.0,2.0,75,0.00,,,0.00,Wunderground v.1.15,2014-04-06 06:18:00,
2014-04-06 01:20:00,36.5,29.3,30.14,SSW,200,1.0,1.0,75,0.00,,,0.00,Wunderground v.1.15,2014-04-06 06:20:00,
2014-04-06 01:24:00,36.3,29.5,30.14,SSW,200,1.0,1.0,76,0.00,,,0.00,Wunderground v.1.15,2014-04-06 06:24:00,
2014-04-06 01:26:00,36.2,29.4,30.14,SSW,200,1.0,2.0,76,0.00,,,0.00,Wunderground v.1.15,2014-04-06 06:26:00,
2014-04-06 01:28:00,36.2,29.4,30.14,SSW,200,1.0,2.0,76,0.00,,,0.00,Wunderground v.1.15,2014-04-06 06:28:00,
2014-04-06 01:30:00,36.1,29.3,30.14,SSW,200,1.0,1.0,76,0.00,,,0.00,Wunderground v.1.15,2014-04-06 06:30:00,
2014-04-06 01:32:00,36.1,29.3,30.14,SSW,200,1.0,2.0,76,0.00,,,0.00,Wunderground v.1.15,2014-04-06 06:32:00,
2014-04-06 01:36:00,35.9,29.4,30.14,SSW,200,2.0,3.0,77,0.00,,,0.00,Wunderground v.1.15,2014-04-06 06:36:00,
2014-04-06 01:38:00,35.8,29.3,30.14,SSW,200,2.0,3.0,77,0.00,,,0.00,Wunderground v.1.15,2014-04-06 06:38:00,
2014-04-06 01:40:00,35.7,29.2,30.14,SSW,200,2.0,2.0,77,0.00,,,0.00,Wunderground v.1.15,2014-04-06 06:40:00,
2014-04-06 01:42:00,35.7,29.2,30.13,SSW,200,2.0,3.0,77,0.00,,,0.00,Wunderground v.1.15,2014-04-06 06:42:00,
2014-04-06 01:44:00,35.6,29.1,30.13,SSW,200,2.0,3.0,77,0.00,,,0.00,Wunderground v.1.15,2014-04-06 06:44:00,
2014-04-06 01:50:00,35.4,28.9,30.13,SSW,200,1.0,1.0,77,0.00,,,0.00,Wunderground v.1.15,2014-04-06 06:50:00,
2014-04-06 01:52:00,35.3,28.8,30.13,SSW,200,1.0,1.0,77,0.00,,,0.00,Wunderground v.1.15,2014-04-06 06:52:00,
2014-04-06 01:54:00,35.3,28.8,30.13,SSW,200,0.0,1.0,77,0.00,,,0.00,Wunderground v.1.15,2014-04-06 06:54:00,
2014-04-06 01:56:00,35.2,29.0,30.13,SSW,200,1.0,1.0,78,0.00,,,0.00,Wunderground v.1.15,2014-04-06 06:56:00,
2014-04-06 01:58:00,35.2,29.0,30.13,SSW,200,1.0,1.0,78,0.00,,,0.00,Wunderground v.1.15,2014-04-06 06:58:00,
2014-04-06 02:00:00,35.2,29.0,30.13,SSW,200,0.0,1.0,78,0.00,,,0.00,Wunderground v.1.15,2014-04-06 07:00:00,
2014-04-06 02:02:00,35.2,29.0,30.13,SSW,200,0.0,1.0,78,0.00,,,0.00,Wunderground v.1.15,2014-04-06 07:02:00,
2014-04-06 02:04:00,35.2,29.0,30.13,SSW,200,0.0,1.0,78,0.00,,,0.00,Wunderground v.1.15,2014-04-06 07:04:00,
2014-04-06 02:10:00,35.0,28.8,30.13,SSW,200,0.0,0.0,78,0.00,,,0.00,Wunderground v.1.15,2014-04-06 07:10:00,
2014-04-06 02:12:00,35.0,28.8,30.13,SSW,200,0.0,0.0,78,0.00,,,0.00,Wunderground v.1.15,2014-04-06 07:12:00,
2014-04-06 02:16:00,34.8,28.6,30.13,SSW,200,0.0,0.0,78,0.00,,,0.00,Wunderground v.1.15,2014-04-06 07:16:00,
2014-04-06 02:18:00,34.7,28.5,30.13,SSW,200,0.0,2.0,78,0.00,,,0.00,Wunderground v.1.15,2014-04-06 07:18:00,
2014-04-06 02:20:00,34.7,28.9,30.13,SSW,200,0.0,2.0,79,0.00,,,0.00,Wunderground v.1.15,2014-04-06 07:20:00,
2014-04-06 02:24:00,34.7,29.2,30.13,SSW,200,1.0,2.0,80,0.00,,,0.00,Wunderground v.1.15,2014-04-06 07:24:00,
2014-04-06 02:28:00,34.8,29.3,30.13,SSW,200,2.0,2.0,80,0.00,,,0.00,Wunderground v.1.15,2014-04-06 07:28:00,
2014-04-06 02:30:00,34.8,29.3,30.12,SSW,199,2.0,3.0,80,0.00,,,0.00,Wunderground v.1.15,2014-04-06 07:30:00,
2014-04-06 02:32:00,34.9,29.7,30.12,SSW,199,2.0,3.0,81,0.00,,,0.00,Wunderground v.1.15,2014-04-06 07:32:00,
2014-04-06 02:36:00,35.5,29.9,30.12,SSW,198,3.0,3.0,80,0.00,,,0.00,Wunderground v.1.15,2014-04-06 07:36:00,
2014-04-06 02:38:00,35.5,29.9,30.12,SSW,198,3.0,3.0,80,0.00,,,0.00,Wunderground v.1.15,2014-04-06 07:38:00,
2014-04-06 02:42:00,36.0,30.1,30.12,SSW,198,3.0,4.0,79,0.00,,,0.00,Wunderground v.1.15,2014-04-06 07:42:00,
2014-04-06 02:44:00,36.2,30.0,30.12,SSW,198,3.0,4.0,78,0.00,,,0.00,Wunderground v.1.15,2014-04-06 07:44:00,
2014-04-06 02:46:00,36.4,30.2,30.12,SSW,198,3.0,4.0,78,0.00,,,0.00,Wunderground v.1.15,2014-04-06 07:46:00,
2014-04-06 02:50:00,36.5,30.0,30.12,SSW,198,3.0,3.0,77,0.00,,,0.00,Wunderground v.1.15,2014-04-06 07:50:00,
2014-04-06 02:52:00,36.6,30.1,30.12,SSW,198,3.0,3.0,77,0.00,,,0.00,Wunderground v.1.15,2014-04-06 07:52:00,
2014-04-06 02:56:00,36.7,29.8,30.12,SSW,198,2.0,3.0,76,0.00,,,0.00,Wunderground v.1.15,2014-04-06 07:56:00,
2014-04-06 02:58:00,36.7,29.8,30.12,SSW,198,2.0,3.0,76,0.00,,,0.00,Wunderground v.1.15,2014-04-06 07:58:00,
2014-04-06 03:00:00,36.7,29.8,30.12,SSW,198,2.0,3.0,76,0.00,,,0.00,Wunderground v.1.15,2014-04-06 08:00:00,
2014-04-06 03:06:00,36.5,29.7,30.12,SSW,198,2.0,3.0,76,0.00,,,0.00,Wunderground v.1.15,2014-04-06 08:06:00,
2014-04-06 03:12:00,36.4,29.6,30.12,SSW,198,1.0,2.0,76,0.00,,,0.00,Wunderground v.1.15,2014-04-06 08:12:00,
2014-04-06 03:14:00,36.2,29.4,30.12,SSW,198,1.0,2.0,76,0.00,,,0.00,Wunderground v.1.15,2014-04-06 08:14:00,
2014-04-06 03:16:00,36.1,29.3,30.12,SSW,198,1.0,2.0,76,0.00,,,0.00,Wunderground v.1.15,2014-04-06 08:16:00,
2014-04-06 03:18:00,36.0,29.2,30.12,SSW,198,1.0,2.0,76,0.00,,,0.00,Wunderground v.1.15,2014-04-06 08:18:00,
2014-04-06 03:20:00,35.9,29.4,30.12,SSW,198,1.0,1.0,77,0.00,,,0.00,Wunderground v.1.15,2014-04-06 08:20:00,
2014-04-06 03:22:00,35.8,29.3,30.11,SSW,198,1.0,2.0,77,0.00,,,0.00,Wunderground v.1.15,2014-04-06 08:22:00,
2014-04-06 03:26:00,35.6,29.1,30.12,SSW,198,1.0,2.0,77,0.00,,,0.00,Wunderground v.1.15,2014-04-06 08:26:00,
2014-04-06 03:28:00,35.5,29.0,30.12,SSW,198,1.0,2.0,77,0.00,,,0.00,Wunderground v.1.15,2014-04-06 08:28:00,
2014-04-06 03:32:00,35.3,29.1,30.12,SSW,198,0.0,1.0,78,0.00,,,0.00,Wunderground v.1.15,2014-04-06 08:32:00,
2014-04-06 03:34:00,35.2,29.0,30.12,SSW,198,0.0,1.0,78,0.00,,,0.00,Wunderground v.1.15,2014-04-06 08:34:00,
2014-04-06 03:36:00,35.2,29.0,30.12,SSW,198,0.0,1.0,78,0.00,,,0.00,Wunderground v.1.15,2014-04-06 08:36:00,
2014-04-06 03:38:00,35.1,28.9,30.12,SSW,198,1.0,1.0,78,0.00,,,0.00,Wunderground v.1.15,2014-04-06 08:38:00,
2014-04-06 03:42:00,35.0,29.1,30.12,SSW,198,1.0,1.0,79,0.00,,,0.00,Wunderground v.1.15,2014-04-06 08:42:00,
2014-04-06 03:46:00,34.9,29.0,30.12,SSW,198,1.0,2.0,79,0.00,,,0.00,Wunderground v.1.15,2014-04-06 08:46:00,
2014-04-06 03:50:00,34.9,29.0,30.12,SSW,198,1.0,2.0,79,0.00,,,0.00,Wunderground v.1.15,2014-04-06 08:50:00,
2014-04-06 03:52:00,34.8,29.0,30.12,SSW,198,1.0,2.0,79,0.00,,,0.00,Wunderground v.1.15,2014-04-06 08:52:00,
2014-04-06 03:54:00,34.8,29.0,30.12,SSW,198,1.0,2.0,79,0.00,,,0.00,Wunderground v.1.15,2014-04-06 08:54:00,
2014-04-06 03:56:00,34.8,29.3,30.12,SSW,198,2.0,2.0,80,0.00,,,0.00,Wunderground v.1.15,2014-04-06 08:56:00,
2014-04-06 03:58:00,34.7,29.2,30.12,SSW,198,1.0,2.0,80,0.00,,,0.00,Wunderground v.1.15,2014-04-06 08:58:00,
2014-04-06 04:02:00,34.6,29.1,30.12,SSW,198,2.0,2.0,80,0.00,,,0.00,Wunderground v.1.15,2014-04-06 09:02:00,
2014-04-06 04:04:00,34.6,29.1,30.12,SSW,198,1.0,2.0,80,0.00,,,0.00,Wunderground v.1.15,2014-04-06 09:04:00,
2014-04-06 04:10:00,34.4,28.9,30.12,SSW,198,2.0,2.0,80,0.00,,,0.00,Wunderground v.1.15,2014-04-06 09:10:00,
2014-04-06 04:12:00,34.3,28.8,30.12,SSW,198,2.0,2.0,80,0.00,,,0.00,Wunderground v.1.15,2014-04-06 09:12:00,
2014-04-06 04:14:00,34.3,28.8,30.12,SSW,198,2.0,2.0,80,0.00,,,0.00,Wunderground v.1.15,2014-04-06 09:14:00,
2014-04-06 04:16:00,34.2,28.7,30.12,SSW,198,1.0,2.0,80,0.00,,,0.00,Wunderground v.1.15,2014-04-06 09:16:00,
2014-04-06 04:20:00,34.2,28.7,30.12,SSW,198,1.0,2.0,80,0.00,,,0.00,Wunderground v.1.15,2014-04-06 09:20:00,
2014-04-06 04:24:00,34.1,28.9,30.11,SSW,198,1.0,2.0,81,0.00,,,0.00,Wunderground v.1.15,2014-04-06 09:24:00,
2014-04-06 04:28:00,34.0,28.8,30.11,SSW,198,2.0,2.0,81,0.00,,,0.00,Wunderground v.1.15,2014-04-06 09:28:00,
2014-04-06 04:30:00,33.9,28.7,30.11,SSW,198,2.0,2.0,81,0.00,,,0.00,Wunderground v.1.15,2014-04-06 09:30:00,
2014-04-06 04:32:00,33.9,28.7,30.11,SSW,198,1.0,2.0,81,0.00,,,0.00,Wunderground v.1.15,2014-04-06 09:32:00,
2014-04-06 04:36:00,33.8,28.6,30.11,SSW,198,2.0,2.0,81,0.00,,,0.00,Wunderground v.1.15,2014-04-06 09:36:00,
2014-04-06 04:38:00,33.8,28.6,30.11,SSW,198,1.0,2.0,81,0.00,,,0.00,Wunderground v.1.15,2014-04-06 09:38:00,
2014-04-06 04:40:00,33.7,28.5,30.11,SSW,198,1.0,1.0,81,0.00,,,0.00,Wunderground v.1.15,2014-04-06 09:40:00,
2014-04-06 04:42:00,33.7,28.5,30.11,SSW,198,1.0,1.0,81,0.00,,,0.00,Wunderground v.1.15,2014-04-06 09:42:00,
2014-04-06 04:44:00,33.7,28.5,30.11,SSW,198,1.0,1.0,81,0.00,,,0.00,Wunderground v.1.15,2014-04-06 09:44:00,
2014-04-06 04:46:00,33.6,28.4,30.11,SSW,198,1.0,2.0,81,0.00,,,0.00,Wunderground v.1.15,2014-04-06 09:46:00,
2014-04-06 04:48:00,33.6,28.4,30.11,SSW,198,1.0,2.0,81,0.00,,,0.00,Wunderground v.1.15,2014-04-06 09:48:00,
2014-04-06 04:50:00,33.6,28.7,30.11,SSW,198,1.0,1.0,82,0.00,,,0.00,Wunderground v.1.15,2014-04-06 09:50:00,
2014-04-06 04:52:00,33.6,28.7,30.11,SSW,198,1.0,1.0,82,0.00,,,0.00,Wunderground v.1.15,2014-04-06 09:52:00,
2014-04-06 04:54:00,33.6,28.7,30.11,SSW,198,1.0,1.0,82,0.00,,,0.00,Wunderground v.1.15,2014-04-06 09:54:00,
2014-04-06 04:58:00,33.6,28.7,30.11,SSW,198,0.0,1.0,82,0.00,,,0.00,Wunderground v.1.15,2014-04-06 09:58:00,
2014-04-06 05:00:00,33.5,28.6,30.11,SSW,198,0.0,0.0,82,0.00,,,0.00,Wunderground v.1.15,2014-04-06 10:00:00,
2014-04-06 05:02:00,33.5,28.6,30.11,SSW,198,0.0,0.0,82,0.00,,,0.00,Wunderground v.1.15,2014-04-06 10:02:00,
2014-04-06 05:04:00,33.4,28.5,30.11,SSW,198,0.0,0.0,82,0.00,,,0.00,Wunderground v.1.15,2014-04-06 10:04:00,
2014-04-06 05:10:00,33.3,28.4,30.11,SSW,198,0.0,0.0,82,0.00,,,0.00,Wunderground v.1.15,2014-04-06 10:10:00,
2014-04-06 05:12:00,33.2,28.3,30.11,SSW,198,0.0,0.0,82,0.00,,,0.00,Wunderground v.1.15,2014-04-06 10:12:00,
2014-04-06 05:16:00,33.1,28.5,30.11,SSW,198,0.0,0.0,83,0.00,,,0.00,Wunderground v.1.15,2014-04-06 10:16:00,
2014-04-06 05:22:00,32.9,28.3,30.11,SSW,198,0.0,0.0,83,0.00,,,0.00,Wunderground v.1.15,2014-04-06 10:22:00,
2014-04-06 05:24:00,32.9,28.3,30.12,SSW,198,0.0,0.0,83,0.00,,,0.00,Wunderground v.1.15,2014-04-06 10:24:00,
2014-04-06 05:26:00,32.8,28.5,30.12,SSW,198,0.0,0.0,84,0.00,,,0.00,Wunderground v.1.15,2014-04-06 10:26:00,
2014-04-06 05:32:00,32.6,28.3,30.12,SSW,198,0.0,0.0,84,0.00,,,0.00,Wunderground v.1.15,2014-04-06 10:32:00,
2014-04-06 05:34:00,32.5,28.2,30.12,SSW,198,0.0,0.0,84,0.00,,,0.00,Wunderground v.1.15,2014-04-06 10:34:00,
2014-04-06 05:40:00,32.2,27.9,30.12,SSW,198,0.0,0.0,84,0.00,,,0.00,Wunderground v.1.15,2014-04-06 10:40:00,
2014-04-06 05:42:00,32.0,27.7,30.12,SSW,198,0.0,0.0,84,0.00,,,0.00,Wunderground v.1.15,2014-04-06 10:42:00,
2014-04-06 05:44:00,31.9,27.6,30.12,SSW,198,0.0,0.0,84,0.00,,,0.00,Wunderground v.1.15,2014-04-06 10:44:00,
2014-04-06 05:48:00,31.7,27.7,30.12,SSW,198,0.0,0.0,85,0.00,,,0.00,Wunderground v.1.15,2014-04-06 10:48:00,
2014-04-06 05:52:00,31.6,27.6,30.13,SSW,198,0.0,1.0,85,0.00,,,0.00,Wunderground v.1.15,2014-04-06 10:52:00,
2014-04-06 05:54:00,31.5,27.8,30.12,SSW,198,0.0,1.0,86,0.00,,,0.00,Wunderground v.1.15,2014-04-06 10:54:00,
2014-04-06 05:58:00,31.5,27.8,30.13,SSW,198,1.0,2.0,86,0.00,,,0.00,Wunderground v.1.15,2014-04-06 10:58:00,
2014-04-06 06:00:00,31.5,27.8,30.13,SSW,198,1.0,1.0,86,0.00,,,0.00,Wunderground v.1.15,2014-04-06 11:00:00,
2014-04-06 06:04:00,31.5,28.1,30.13,SSW,198,1.0,2.0,87,0.00,,,0.00,Wunderground v.1.15,2014-04-06 11:04:00,
2014-04-06 06:06:00,31.5,28.1,30.13,SSW,198,1.0,2.0,87,0.00,,,0.00,Wunderground v.1.15,2014-04-06 11:06:00,
2014-04-06 06:08:00,31.5,28.1,30.13,SSW,198,1.0,2.0,87,0.00,,,0.00,Wunderground v.1.15,2014-04-06 11:08:00,
2014-04-06 06:10:00,31.5,28.1,30.13,SSW,198,1.0,1.0,87,0.00,,,0.00,Wunderground v.1.15,2014-04-06 11:10:00,
2014-04-06 06:14:00,31.6,28.2,30.13,SSW,198,1.0,2.0,87,0.00,,,0.00,Wunderground v.1.15,2014-04-06 11:14:00,
2014-04-06 06:16:00,31.7,28.3,30.13,SSW,198,1.0,2.0,87,0.00,,,0.00,Wunderground v.1.15,2014-04-06 11:16:00,
2014-04-06 06:18:00,31.7,28.3,30.13,SSW,198,1.0,2.0,87,0.00,,,0.00,Wunderground v.1.15,2014-04-06 11:18:00,
2014-04-06 06:22:00,31.7,28.3,30.13,SSW,198,1.0,2.0,87,0.00,,,0.00,Wunderground v.1.15,2014-04-06 11:22:00,
2014-04-06 06:26:00,31.7,28.3,30.13,SSW,198,1.0,2.0,87,0.00,,,0.00,Wunderground v.1.15,2014-04-06 11:26:00,
2014-04-06 06:28:00,31.7,28.3,30.13,SSW,198,1.0,2.0,87,0.00,,,0.00,Wunderground v.1.15,2014-04-06 11:28:00,
2014-04-06 06:30:00,31.7,28.3,30.13,SSW,198,1.0,1.0,87,0.00,,,0.00,Wunderground v.1.15,2014-04-06 11:30:00,
2014-04-06 06:36:00,31.5,27.8,30.13,SSW,197,1.0,2.0,86,0.00,,,0.00,Wunderground v.1.15,2014-04-06 11:36:00,
2014-04-06 06:38:00,31.5,27.8,30.13,SSW,197,1.0,2.0,86,0.00,,,0.00,Wunderground v.1.15,2014-04-06 11:38:00,
2014-04-06 06:40:00,31.4,28.0,30.13,SSW,197,1.0,1.0,87,0.00,,,0.00,Wunderground v.1.15,2014-04-06 11:40:00,
2014-04-06 06:44:00,31.4,28.0,30.13,SSW,197,1.0,1.0,87,0.00,,,0.00,Wunderground v.1.15,2014-04-06 11:44:00,
2014-04-06 06:46:00,31.4,28.0,30.13,SSW,197,1.0,1.0,87,0.00,,,0.00,Wunderground v.1.15,2014-04-06 11:46:00,
2014-04-06 06:50:00,31.5,28.1,30.13,SSW,197,0.0,0.0,87,0.00,,,0.00,Wunderground v.1.15,2014-04-06 11:50:00,
2014-04-06 06:52:00,31.5,28.1,30.13,SSW,197,0.0,0.0,87,0.00,,,0.00,Wunderground v.1.15,2014-04-06 11:52:00,
2014-04-06 06:58:00,31.4,28.0,30.13,SSW,197,0.0,0.0,87,0.00,,,0.00,Wunderground v.1.15,2014-04-06 11:58:00,
2014-04-06 07:00:00,31.3,27.9,30.13,SSW,197,0.0,0.0,87,0.00,,,0.00,Wunderground v.1.15,2014-04-06 12:00:00,
2014-04-06 07:02:00,31.3,27.9,30.13,SSW,197,0.0,1.0,87,0.00,,,0.00,Wunderground v.1.15,2014-04-06 12:02:00,
2014-04-06 07:04:00,31.2,27.8,30.13,SSW,197,0.0,1.0,87,0.00,,,0.00,Wunderground v.1.15,2014-04-06 12:04:00,
2014-04-06 07:08:00,31.1,27.7,30.13,SSW,197,0.0,1.0,87,0.00,,,0.00,Wunderground v.1.15,2014-04-06 12:08:00,
2014-04-06 07:10:00,31.1,27.7,30.13,SSW,197,1.0,1.0,87,0.00,,,0.00,Wunderground v.1.15,2014-04-06 12:10:00,
2014-04-06 07:12:00,31.2,27.8,30.13,SSW,197,1.0,2.0,87,0.00,,,0.00,Wunderground v.1.15,2014-04-06 12:12:00,
2014-04-06 07:16:00,31.4,28.3,30.13,SSW,197,1.0,2.0,88,0.00,,,0.00,Wunderground v.1.15,2014-04-06 12:16:00,
2014-04-06 07:18:00,31.5,28.4,30.13,SSW,197,1.0,2.0,88,0.00,,,0.00,Wunderground v.1.15,2014-04-06 12:18:00,
2014-04-06 07:20:00,31.8,28.9,30.13,SSW,197,1.0,3.0,89,0.00,,,0.00,Wunderground v.1.15,2014-04-06 12:20:00,
2014-04-06 07:22:00,32.1,29.2,30.13,SSW,197,2.0,3.0,89,0.00,,,0.00,Wunderground v.1.15,2014-04-06 12:22:00,
2014-04-06 07:28:00,33.0,30.1,30.13,SSW,197,2.0,4.0,89,0.00,,,0.00,Wunderground v.1.15,2014-04-06 12:28:00,
2014-04-06 07:30:00,33.4,30.5,30.13,SSW,197,2.0,3.0,89,0.00,,,0.00,Wunderground v.1.15,2014-04-06 12:30:00,
2014-04-06 07:32:00,33.8,30.6,30.13,SSW,197,2.0,4.0,88,0.00,,,0.00,Wunderground v.1.15,2014-04-06 12:32:00,
2014-04-06 07:34:00,34.1,30.9,30.13,SSW,197,2.0,4.0,88,0.00,,,0.00,Wunderground v.1.15,2014-04-06 12:34:00,
2014-04-06 07:36:00,34.5,31.0,30.13,SSW,197,2.0,4.0,87,0.00,,,0.00,Wunderground v.1.15,2014-04-06 12:36:00,
2014-04-06 07:40:00,35.0,31.5,30.13,SSW,197,3.0,3.0,87,0.00,,,0.00,Wunderground v.1.15,2014-04-06 12:40:00,
2014-04-06 07:42:00,35.3,31.5,30.13,SSW,197,3.0,3.0,86,0.00,,,0.00,Wunderground v.1.15,2014-04-06 12:42:00,
2014-04-06 07:44:00,35.6,31.8,30.13,SSW,196,3.0,3.0,86,0.00,,,0.00,Wunderground v.1.15,2014-04-06 12:44:00,
2014-04-06 07:46:00,36.0,31.9,30.13,SSW,196,3.0,4.0,85,0.00,,,0.00,Wunderground v.1.15,2014-04-06 12:46:00,
2014-04-06 07:50:00,36.4,32.0,30.13,SSW,196,3.0,3.0,84,0.00,,,0.00,Wunderground v.1.15,2014-04-06 12:50:00,
2014-04-06 07:54:00,37.0,32.3,30.14,South,188,3.0,5.0,83,0.00,,,0.00,Wunderground v.1.15,2014-04-06 12:54:00,
2014-04-06 07:56:00,37.3,32.6,30.14,South,188,3.0,5.0,83,0.00,,,0.00,Wunderground v.1.15,2014-04-06 12:56:00,
2014-04-06 08:00:00,37.8,32.8,30.14,South,187,4.0,4.0,82,0.00,,,0.00,Wunderground v.1.15,2014-04-06 13:00:00,
2014-04-06 08:02:00,38.0,33.0,30.13,South,188,4.0,5.0,82,0.00,,,0.00,Wunderground v.1.15,2014-04-06 13:02:00,
2014-04-06 08:04:00,38.2,32.9,30.13,SSW,196,4.0,5.0,81,0.00,,,0.00,Wunderground v.1.15,2014-04-06 13:04:00,
2014-04-06 08:08:00,38.7,33.1,30.13,SSW,197,4.0,5.0,80,0.00,,,0.00,Wunderground v.1.15,2014-04-06 13:08:00,
2014-04-06 08:10:00,38.9,33.3,30.13,SSW,197,4.0,4.0,80,0.00,,,0.00,Wunderground v.1.15,2014-04-06 13:10:00,
2014-04-06 08:12:00,39.1,33.5,30.13,SSW,197,4.0,6.0,80,0.00,,,0.00,Wunderground v.1.15,2014-04-06 13:12:00,
2014-04-06 08:14:00,39.3,33.6,30.13,SSW,201,4.0,6.0,80,0.00,,,0.00,Wunderground v.1.15,2014-04-06 13:14:00,
2014-04-06 08:16:00,39.6,33.6,30.13,SSW,201,4.0,6.0,79,0.00,,,0.00,Wunderground v.1.15,2014-04-06 13:16:00,
2014-04-06 08:18:00,39.7,33.7,30.13,SSW,201,4.0,6.0,79,0.00,,,0.00,Wunderground v.1.15,2014-04-06 13:18:00,
2014-04-06 08:22:00,40.2,34.2,30.13,SSW,203,5.0,6.0,79,0.00,,,0.00,Wunderground v.1.15,2014-04-06 13:22:00,
2014-04-06 08:24:00,40.4,34.1,30.13,SSW,202,5.0,6.0,78,0.00,,,0.00,Wunderground v.1.15,2014-04-06 13:24:00,
2014-04-06 08:26:00,40.6,34.3,30.13,SSW,202,5.0,6.0,78,0.00,,,0.00,Wunderground v.1.15,2014-04-06 13:26:00,
2014-04-06 08:30:00,40.9,34.2,30.13,SSW,196,5.0,5.0,77,0.00,,,0.00,Wunderground v.1.15,2014-04-06 13:30:00,
2014-04-06 08:32:00,41.0,34.0,30.13,SSW,199,5.0,10.0,76,0.00,,,0.00,Wunderground v.1.15,2014-04-06 13:32:00,
2014-04-06 08:34:00,41.1,34.1,30.13,SSW,198,5.0,10.0,76,0.00,,,0.00,Wunderground v.1.15,2014-04-06 13:34:00,
2014-04-06 08:36:00,41.3,34.3,30.12,South,180,6.0,10.0,76,0.00,,,0.00,Wunderground v.1.15,2014-04-06 13:36:00,
2014-04-06 08:40:00,41.4,34.1,30.12,South,186,7.0,7.0,75,0.00,,,0.00,Wunderground v.1.15,2014-04-06 13:40:00,
2014-04-06 08:42:00,41.4,34.1,30.12,South,177,7.0,12.0,75,0.00,,,0.00,Wunderground v.1.15,2014-04-06 13:42:00,
2014-04-06 08:46:00,41.4,34.4,30.12,South,178,7.0,13.0,76,0.00,,,0.00,Wunderground v.1.15,2014-04-06 13:46:00,
2014-04-06 08:48:00,41.5,34.2,30.13,South,176,7.0,13.0,75,0.00,,,0.00,Wunderground v.1.15,2014-04-06 13:48:00,
2014-04-06 08:50:00,41.6,34.3,30.12,South,177,8.0,8.0,75,0.00,,,0.00,Wunderground v.1.15,2014-04-06 13:50:00,
2014-04-06 08:52:00,41.6,34.3,30.12,SSE,168,8.0,11.0,75,0.00,,,0.00,Wunderground v.1.15,2014-04-06 13:52:00,
2014-04-06 08:56:00,41.9,34.9,30.12,SSE,165,7.0,11.0,76,0.00,,,0.00,Wunderground v.1.15,2014-04-06 13:56:00,
2014-04-06 09:00:00,42.3,35.3,30.12,South,181,7.0,7.0,76,0.00,,,0.00,Wunderground v.1.15,2014-04-06 14:00:00,
2014-04-06 09:02:00,42.5,35.5,30.12,South,186,7.0,7.0,76,0.00,,,0.00,Wunderground v.1.15,2014-04-06 14:02:00,
2014-04-06 09:04:00,42.8,35.4,30.12,South,184,7.0,7.0,75,0.00,,,0.00,Wunderground v.1.15,2014-04-06 14:04:00,
2014-04-06 09:08:00,43.2,35.5,30.12,South,183,7.0,8.0,74,0.00,,,0.00,Wunderground v.1.15,2014-04-06 14:08:00,
2014-04-06 09:10:00,43.3,35.6,30.12,South,189,7.0,7.0,74,0.00,,,0.00,Wunderground v.1.15,2014-04-06 14:10:00,
2014-04-06 09:14:00,43.6,35.9,30.12,SSW,194,8.0,9.0,74,0.00,,,0.00,Wunderground v.1.15,2014-04-06 14:14:00,
2014-04-06 09:16:00,43.8,35.7,30.12,SSW,211,8.0,9.0,73,0.00,,,0.00,Wunderground v.1.15,2014-04-06 14:16:00,
2014-04-06 09:18:00,43.9,35.8,30.11,SSW,205,8.0,9.0,73,0.00,,,0.00,Wunderground v.1.15,2014-04-06 14:18:00,
2014-04-06 09:20:00,44.1,36.0,30.11,SSW,207,7.0,14.0,73,0.00,,,0.00,Wunderground v.1.15,2014-04-06 14:20:00,
2014-04-06 09:24:00,44.3,35.8,30.11,SSE,159,8.0,14.0,72,0.00,,,0.00,Wunderground v.1.15,2014-04-06 14:24:00,
2014-04-06 09:26:00,44.5,36.0,30.11,SSW,200,8.0,14.0,72,0.00,,,0.00,Wunderground v.1.15,2014-04-06 14:26:00,
2014-04-06 09:30:00,44.7,36.2,30.11,South,179,7.0,9.0,72,0.00,,,0.00,Wunderground v.1.15,2014-04-06 14:30:00,
2014-04-06 09:32:00,44.8,36.0,30.12,SSW,200,7.0,9.0,71,0.00,,,0.00,Wunderground v.1.15,2014-04-06 14:32:00,
2014-04-06 09:34:00,44.9,36.1,30.12,SSW,203,8.0,9.0,71,0.00,,,0.00,Wunderground v.1.15,2014-04-06 14:34:00,
2014-04-06 09:36:00,44.9,35.7,30.12,South,173,7.0,9.0,70,0.00,,,0.00,Wunderground v.1.15,2014-04-06 14:36:00,
2014-04-06 09:38:00,44.9,36.1,30.12,SSW,194,8.0,9.0,71,0.00,,,0.00,Wunderground v.1.15,2014-04-06 14:38:00,
2014-04-06 09:42:00,45.1,36.3,30.12,SW,226,7.0,8.0,71,0.00,,,0.00,Wunderground v.1.15,2014-04-06 14:42:00,
2014-04-06 09:44:00,45.3,36.4,30.11,South,190,7.0,8.0,71,0.00,,,0.00,Wunderground v.1.15,2014-04-06 14:44:00,
2014-04-06 09:46:00,45.5,36.6,30.12,SSW,211,6.0,8.0,71,0.00,,,0.00,Wunderground v.1.15,2014-04-06 14:46:00,
2014-04-06 09:48:00,45.7,36.8,30.11,South,184,6.0,8.0,71,0.00,,,0.00,Wunderground v.1.15,2014-04-06 14:48:00,
2014-04-06 09:50:00,45.9,36.7,30.11,SSW,198,6.0,9.0,70,0.00,,,0.00,Wunderground v.1.15,2014-04-06 14:50:00,
2014-04-06 09:52:00,46.1,36.9,30.11,South,181,7.0,9.0,70,0.00,,,0.00,Wunderground v.1.15,2014-04-06 14:52:00,
2014-04-06 09:54:00,46.4,36.8,30.11,South,181,7.0,9.0,69,0.00,,,0.00,Wunderground v.1.15,2014-04-06 14:54:00,
2014-04-06 09:56:00,46.6,37.3,30.11,SSW,205,7.0,9.0,70,0.00,,,0.00,Wunderground v.1.15,2014-04-06 14:56:00,
2014-04-06 09:58:00,46.8,37.5,30.11,SSW,196,7.0,9.0,70,0.00,,,0.00,Wunderground v.1.15,2014-04-06 14:58:00,
2014-04-06 10:00:00,46.9,37.3,30.11,South,179,7.0,7.0,69,0.00,,,0.00,Wunderground v.1.15,2014-04-06 15:00:00,
2014-04-06 10:04:00,47.1,37.4,30.11,South,187,8.0,9.0,69,0.00,,,0.00,Wunderground v.1.15,2014-04-06 15:04:00,
2014-04-06 10:06:00,47.3,37.3,30.11,SSW,194,7.0,9.0,68,0.00,,,0.00,Wunderground v.1.15,2014-04-06 15:06:00,
2014-04-06 10:08:00,47.4,37.4,30.11,South,173,7.0,9.0,68,0.00,,,0.00,Wunderground v.1.15,2014-04-06 15:08:00,
2014-04-06 10:10:00,47.7,37.3,30.11,South,182,6.0,6.0,67,0.00,,,0.00,Wunderground v.1.15,2014-04-06 15:10:00,
2014-04-06 10:12:00,47.9,37.5,30.11,South,187,6.0,10.0,67,0.00,,,0.00,Wunderground v.1.15,2014-04-06 15:12:00,
2014-04-06 10:14:00,48.1,36.9,30.11,South,182,6.0,10.0,65,0.00,,,0.00,Wunderground v.1.15,2014-04-06 15:14:00,
2014-04-06 10:18:00,48.2,36.2,30.11,SSE,161,8.0,11.0,63,0.00,,,0.00,Wunderground v.1.15,2014-04-06 15:18:00,
2014-04-06 10:20:00,48.1,35.7,30.11,SSW,200,9.0,10.0,62,0.00,,,0.00,Wunderground v.1.15,2014-04-06 15:20:00,
2014-04-06 10:22:00,48.1,36.1,30.11,SSW,200,10.0,10.0,63,0.00,,,0.00,Wunderground v.1.15,2014-04-06 15:22:00,
2014-04-06 10:26:00,47.9,35.9,30.11,South,179,10.0,10.0,63,0.00,,,0.00,Wunderground v.1.15,2014-04-06 15:26:00,
2014-04-06 10:28:00,47.9,35.9,30.11,South,186,9.0,11.0,63,0.00,,,0.00,Wunderground v.1.15,2014-04-06 15:28:00,
2014-04-06 10:30:00,47.9,35.9,30.11,SW,231,9.0,9.0,63,0.00,,,0.00,Wunderground v.1.15,2014-04-06 15:30:00,
2014-04-06 10:32:00,47.8,36.2,30.11,South,175,9.0,9.0,64,0.00,,,0.00,Wunderground v.1.15,2014-04-06 15:32:00,
2014-04-06 10:36:00,47.9,35.9,30.11,SSW,202,8.0,9.0,63,0.00,,,0.00,Wunderground v.1.15,2014-04-06 15:36:00,
2014-04-06 10:40:00,47.9,35.9,30.11,South,177,9.0,11.0,63,0.00,,,0.00,Wunderground v.1.15,2014-04-06 15:40:00,
2014-04-06 10:44:00,48.0,36.0,30.11,SW,214,9.0,12.0,63,0.00,,,0.00,Wunderground v.1.15,2014-04-06 15:44:00,
2014-04-06 10:48:00,48.0,36.0,30.11,South,188,9.0,12.0,63,0.00,,,0.00,Wunderground v.1.15,2014-04-06 15:48:00,
2014-04-06 10:50:00,48.1,36.5,30.11,SSW,200,9.0,9.0,64,0.00,,,0.00,Wunderground v.1.15,2014-04-06 15:50:00,
2014-04-06 10:52:00,48.2,36.6,30.11,SSW,213,9.0,9.0,64,0.00,,,0.00,Wunderground v.1.15,2014-04-06 15:52:00,
2014-04-06 10:56:00,48.5,36.5,30.11,SW,223,8.0,9.0,63,0.00,,,0.00,Wunderground v.1.15,2014-04-06 15:56:00,
2014-04-06 11:00:00,48.7,36.7,30.11,SSW,196,8.0,8.0,63,0.00,,,0.00,Wunderground v.1.15,2014-04-06 16:00:00,
2014-04-06 11:02:00,48.7,36.7,30.11,SSW,198,8.0,8.0,63,0.00,,,0.00,Wunderground v.1.15,2014-04-06 16:02:00,
2014-04-06 11:04:00,48.8,36.4,30.11,South,174,8.0,9.0,62,0.00,,,0.00,Wunderground v.1.15,2014-04-06 16:04:00,
2014-04-06 11:06:00,48.8,36.8,30.11,SSW,201,9.0,9.0,63,0.00,,,0.00,Wunderground v.1.15,2014-04-06 16:06:00,
2014-04-06 11:08:00,48.9,36.9,30.11,SSW,199,8.0,9.0,63,0.00,,,0.00,Wunderground v.1.15,2014-04-06 16:08:00,
2014-04-06 11:12:00,49.0,36.9,30.11,SSW,209,9.0,9.0,63,0.00,,,0.00,Wunderground v.1.15,2014-04-06 16:12:00,
2014-04-06 11:16:00,48.8,36.4,30.11,South,181,9.0,10.0,62,0.00,,,0.00,Wunderground v.1.15,2014-04-06 16:16:00,
2014-04-06 11:20:00,48.8,36.4,30.10,SSW,205,8.0,8.0,62,0.00,,,0.00,Wunderground v.1.15,2014-04-06 16:20:00,
2014-04-06 11:22:00,49.0,36.5,30.10,SSW,193,7.0,8.0,62,0.00,,,0.00,Wunderground v.1.15,2014-04-06 16:22:00,
2014-04-06 11:26:00,49.2,36.3,30.10,SSE,166,7.0,12.0,61,0.00,,,0.00,Wunderground v.1.15,2014-04-06 16:26:00,
2014-04-06 11:28:00,49.3,36.8,30.11,SSW,197,7.0,12.0,62,0.00,,,0.00,Wunderground v.1.15,2014-04-06 16:28:00,
2014-04-06 11:30:00,49.2,36.3,30.10,South,181,8.0,14.0,61,0.00,,,0.00,Wunderground v.1.15,2014-04-06 16:30:00,
2014-04-06 11:32:00,49.1,35.8,30.10,SSW,204,9.0,14.0,60,0.00,,,0.00,Wunderground v.1.15,2014-04-06 16:32:00,
2014-04-06 11:34:00,49.1,36.6,30.10,South,177,9.0,14.0,62,0.00,,,0.00,Wunderground v.1.15,2014-04-06 16:34:00,
2014-04-06 11:36:00,49.2,36.7,30.10,South,182,9.0,14.0,62,0.00,,,0.00,Wunderground v.1.15,2014-04-06 16:36:00,
2014-04-06 11:38:00,49.2,37.1,30.10,South,182,8.0,14.0,63,0.00,,,0.00,Wunderground v.1.15,2014-04-06 16:38:00,
2014-04-06 11:42:00,49.4,37.7,30.10,SSW,205,7.0,10.0,64,0.00,,,0.00,Wunderground v.1.15,2014-04-06 16:42:00,
2014-04-06 11:44:00,49.7,37.2,30.10,SSW,194,6.0,10.0,62,0.00,,,0.00,Wunderground v.1.15,2014-04-06 16:44:00,
2014-04-06 11:46:00,49.9,37.0,30.10,SSE,157,6.0,10.0,61,0.00,,,0.00,Wunderground v.1.15,2014-04-06 16:46:00,
2014-04-06 11:48:00,49.9,36.6,30.09,SSE,155,7.0,12.0,60,0.00,,,0.00,Wunderground v.1.15,2014-04-06 16:48:00,
2014-04-06 11:52:00,50.1,37.6,30.09,South,177,7.0,9.0,62,0.00,,,0.00,Wunderground v.1.15,2014-04-06 16:52:00,
2014-04-06 11:54:00,50.3,37.4,30.09,SSW,199,8.0,9.0,61,0.00,,,0.00,Wunderground v.1.15,2014-04-06 16:54:00,
2014-04-06 11:56:00,50.4,37.0,30.09,SSE,166,8.0,9.0,60,0.00,,,0.00,Wunderground v.1.15,2014-04-06 16:56:00,
2014-04-06 11:58:00,50.5,36.7,30.09,SSW,194,8.0,11.0,59,0.00,,,0.00,Wunderground v.1.15,2014-04-06 16:58:00,
2014-04-06 12:00:00,50.4,37.0,30.09,SSW,197,8.0,8.0,60,0.00,,,0.00,Wunderground v.1.15,2014-04-06 17:00:00,
2014-04-06 12:02:00,50.3,36.5,30.08,SE,146,8.0,9.0,59,0.00,,,0.00,Wunderground v.1.15,2014-04-06 17:02:00,
2014-04-06 12:04:00,50.1,36.7,30.08,SW,214,8.0,10.0,60,0.00,,,0.00,Wunderground v.1.15,2014-04-06 17:04:00,
2014-04-06 12:06:00,50.1,36.3,30.08,South,180,8.0,10.0,59,0.00,,,0.00,Wunderground v.1.15,2014-04-06 17:06:00,
2014-04-06 12:10:00,50.1,36.7,30.08,SW,220,8.0,8.0,60,0.00,,,0.00,Wunderground v.1.15,2014-04-06 17:10:00,
2014-04-06 12:16:00,50.4,37.4,30.07,SSW,204,7.0,8.0,61,0.00,,,0.00,Wunderground v.1.15,2014-04-06 17:16:00,
2014-04-06 12:20:00,50.6,37.6,30.08,South,176,6.0,6.0,61,0.00,,,0.00,Wunderground v.1.15,2014-04-06 17:20:00,
2014-04-06 12:22:00,50.6,36.8,30.08,South,177,7.0,9.0,59,0.00,,,0.00,Wunderground v.1.15,2014-04-06 17:22:00,
2014-04-06 12:26:00,50.5,36.7,30.08,South,173,7.0,9.0,59,0.00,,,0.00,Wunderground v.1.15,2014-04-06 17:26:00,
2014-04-06 12:30:00,50.4,37.0,30.07,South,191,7.0,7.0,60,0.00,,,0.00,Wunderground v.1.15,2014-04-06 17:30:00,
2014-04-06 12:32:00,50.4,36.2,30.07,South,186,7.0,8.0,58,0.00,,,0.00,Wunderground v.1.15,2014-04-06 17:32:00,
2014-04-06 12:34:00,50.3,36.5,30.07,SSE,155,7.0,9.0,59,0.00,,,0.00,Wunderground v.1.15,2014-04-06 17:34:00,
2014-04-06 12:36:00,50.4,36.6,30.07,SSE,151,8.0,9.0,59,0.00,,,0.00,Wunderground v.1.15,2014-04-06 17:36:00,
2014-04-06 12:38:00,50.4,37.0,30.07,SSE,163,7.0,9.0,60,0.00,,,0.00,Wunderground v.1.15,2014-04-06 17:38:00,
2014-04-06 12:40:00,50.4,36.6,30.07,SE,146,7.0,8.0,59,0.00,,,0.00,Wunderground v.1.15,2014-04-06 17:40:00,
2014-04-06 12:42:00,50.5,37.1,30.07,SW,230,7.0,9.0,60,0.00,,,0.00,Wunderground v.1.15,2014-04-06 17:42:00,
2014-04-06 12:44:00,50.6,36.8,30.06,South,187,7.0,9.0,59,0.00,,,0.00,Wunderground v.1.15,2014-04-06 17:44:00,
2014-04-06 12:46:00,50.7,36.5,30.06,South,179,7.0,9.0,58,0.00,,,0.00,Wunderground v.1.15,2014-04-06 17:46:00,
2014-04-06 12:50:00,50.8,37.0,30.06,SSW,201,7.0,7.0,59,0.00,,,0.00,Wunderground v.1.15,2014-04-06 17:50:00,
2014-04-06 12:52:00,50.9,37.1,30.06,SSW,197,6.0,7.0,59,0.00,,,0.00,Wunderground v.1.15,2014-04-06 17:52:00,
2014-04-06 12:56:00,51.4,37.1,30.06,SE,139,6.0,9.0,58,0.00,,,0.00,Wunderground v.1.15,2014-04-06 17:56:00,
2014-04-06 12:58:00,51.3,37.0,30.05,SE,144,6.0,9.0,58,0.00,,,0.00,Wunderground v.1.15,2014-04-06 17:58:00,
2014-04-06 13:00:00,51.3,37.4,30.05,SSE,163,6.0,10.0,59,0.00,,,0.00,Wunderground v.1.15,2014-04-06 18:00:00,
2014-04-06 13:02:00,51.3,37.0,30.05,SE,133,6.0,10.0,58,0.00,,,0.00,Wunderground v.1.15,2014-04-06 18:02:00,
2014-04-06 13:06:00,51.4,38.0,30.05,SSE,162,5.0,12.0,60,0.00,,,0.00,Wunderground v.1.15,2014-04-06 18:06:00,
2014-04-06 13:08:00,51.3,37.0,30.05,SSE,150,5.0,12.0,58,0.00,,,0.00,Wunderground v.1.15,2014-04-06 18:08:00,
2014-04-06 13:12:00,51.1,36.8,30.04,South,180,6.0,8.0,58,0.00,,,0.00,Wunderground v.1.15,2014-04-06 18:12:00,
2014-04-06 13:14:00,51.1,37.7,30.04,SSE,165,6.0,9.0,60,0.00,,,0.00,Wunderground v.1.15,2014-04-06 18:14:00,
2014-04-06 13:18:00,50.9,37.1,30.04,South,177,7.0,9.0,59,0.00,,,0.00,Wunderground v.1.15,2014-04-06 18:18:00,
2014-04-06 13:22:00,50.9,37.1,30.04,SSE,168,6.0,6.0,59,0.00,,,0.00,Wunderground v.1.15,2014-04-06 18:22:00,
2014-04-06 13:24:00,51.0,37.2,30.03,SSW,192,6.0,6.0,59,0.00,,,0.00,Wunderground v.1.15,2014-04-06 18:24:00,
2014-04-06 13:30:00,51.2,36.9,30.03,South,174,6.0,9.0,58,0.00,,,0.00,Wunderground v.1.15,2014-04-06 18:30:00,
2014-04-06 13:32:00,51.2,36.9,30.03,SE,129,6.0,9.0,58,0.00,,,0.00,Wunderground v.1.15,2014-04-06 18:32:00,
2014-04-06 13:34:00,51.2,36.9,30.03,South,177,6.0,9.0,58,0.00,,,0.00,Wunderground v.1.15,2014-04-06 18:34:00,
2014-04-06 13:36:00,51.2,36.5,30.03,SE,138,7.0,9.0,57,0.00,,,0.00,Wunderground v.1.15,2014-04-06 18:36:00,
2014-04-06 13:38:00,51.2,36.5,30.03,SE,140,6.0,9.0,57,0.00,,,0.00,Wunderground v.1.15,2014-04-06 18:38:00,
2014-04-06 13:40:00,51.2,36.5,30.03,South,182,6.0,6.0,57,0.00,,,0.00,Wunderground v.1.15,2014-04-06 18:40:00,
2014-04-06 13:44:00,51.5,37.2,30.02,SE,146,5.0,6.0,58,0.00,,,0.00,Wunderground v.1.15,2014-04-06 18:44:00,
2014-04-06 13:46:00,51.5,36.3,30.02,SE,125,5.0,10.0,56,0.00,,,0.00,Wunderground v.1.15,2014-04-06 18:46:00,
2014-04-06 13:48:00,51.5,36.3,30.02,SE,142,5.0,10.0,56,0.00,,,0.00,Wunderground v.1.15,2014-04-06 18:48:00,
2014-04-06 13:50:00,51.6,36.4,30.01,SE,134,4.0,4.0,56,0.00,,,0.00,Wunderground v.1.15,2014-04-06 18:50:00,
2014-04-06 13:52:00,51.6,36.4,30.01,SE,135,4.0,4.0,56,0.00,,,0.00,Wunderground v.1.15,2014-04-06 18:52:00,
2014-04-06 13:54:00,51.7,35.1,30.01,SSE,154,4.0,4.0,53,0.00,,,0.00,Wunderground v.1.15,2014-04-06 18:54:00,
2014-04-06 13:56:00,51.6,35.0,30.01,South,178,4.0,4.0,53,0.00,,,0.00,Wunderground v.1.15,2014-04-06 18:56:00,
2014-04-06 13:58:00,51.5,34.9,30.01,South,178,4.0,4.0,53,0.00,,,0.00,Wunderground v.1.15,2014-04-06 18:58:00,
2014-04-06 14:02:00,51.5,35.4,30.01,South,173,5.0,5.0,54,0.00,,,0.00,Wunderground v.1.15,2014-04-06 19:02:00,
2014-04-06 14:04:00,51.6,35.9,30.01,South,171,5.0,11.0,55,0.00,,,0.00,Wunderground v.1.15,2014-04-06 19:04:00,
2014-04-06 14:06:00,51.8,36.6,30.01,South,189,5.0,11.0,56,0.00,,,0.00,Wunderground v.1.15,2014-04-06 19:06:00,
2014-04-06 14:08:00,51.9,35.3,30.01,SSW,192,5.0,11.0,53,0.00,,,0.00,Wunderground v.1.15,2014-04-06 19:08:00,
2014-04-06 14:12:00,52.2,35.1,30.01,SSE,156,6.0,6.0,52,0.00,,,0.00,Wunderground v.1.15,2014-04-06 19:12:00,
2014-04-06 14:14:00,52.4,35.8,30.01,SE,130,6.0,7.0,53,0.00,,,0.00,Wunderground v.1.15,2014-04-06 19:14:00,
2014-04-06 14:18:00,52.6,35.9,30.01,South,179,6.0,8.0,53,0.00,,,0.00,Wunderground v.1.15,2014-04-06 19:18:00,
2014-04-06 14:20:00,52.7,35.6,30.01,South,170,5.0,5.0,52,0.00,,,0.00,Wunderground v.1.15,2014-04-06 19:20:00,
2014-04-06 14:26:00,53.2,35.5,30.00,SSE,159,5.0,9.0,51,0.00,,,0.00,Wunderground v.1.15,2014-04-06 19:26:00,
2014-04-06 14:30:00,53.5,35.3,30.00,SSE,154,5.0,5.0,50,0.00,,,0.00,Wunderground v.1.15,2014-04-06 19:30:00,
2014-04-06 14:34:00,53.9,37.1,29.99,SSE,148,3.0,5.0,53,0.00,,,0.00,Wunderground v.1.15,2014-04-06 19:34:00,
2014-04-06 14:36:00,54.3,36.5,29.99,SW,227,4.0,5.0,51,0.00,,,0.00,Wunderground v.1.15,2014-04-06 19:36:00,
2014-04-06 14:38:00,54.4,37.1,29.99,SSW,208,5.0,9.0,52,0.00,,,0.00,Wunderground v.1.15,2014-04-06 19:38:00,
2014-04-06 14:40:00,54.6,36.8,29.99,South,172,5.0,6.0,51,0.00,,,0.00,Wunderground v.1.15,2014-04-06 19:40:00,
2014-04-06 14:42:00,54.7,35.4,29.99,South,171,5.0,6.0,48,0.00,,,0.00,Wunderground v.1.15,2014-04-06 19:42:00,
2014-04-06 14:46:00,54.7,35.9,29.99,South,171,6.0,7.0,49,0.00,,,0.00,Wunderground v.1.15,2014-04-06 19:46:00,
2014-04-06 14:48:00,54.7,36.9,29.99,South,170,5.0,7.0,51,0.00,,,0.00,Wunderground v.1.15,2014-04-06 19:48:00,
2014-04-06 14:52:00,54.8,35.5,29.99,SSE,164,5.0,11.0,48,0.00,,,0.00,Wunderground v.1.15,2014-04-06 19:52:00,
2014-04-06 14:54:00,54.7,34.8,29.99,South,180,6.0,11.0,47,0.00,,,0.00,Wunderground v.1.15,2014-04-06 19:54:00,
2014-04-06 14:56:00,54.6,35.3,29.98,South,175,6.0,12.0,48,0.00,,,0.00,Wunderground v.1.15,2014-04-06 19:56:00,
2014-04-06 14:58:00,54.6,35.3,29.99,SSE,156,6.0,12.0,48,0.00,,,0.00,Wunderground v.1.15,2014-04-06 19:58:00,
2014-04-06 15:00:00,54.6,34.8,29.99,South,170,7.0,10.0,47,0.00,,,0.00,Wunderground v.1.15,2014-04-06 20:00:00,
2014-04-06 15:04:00,54.5,34.7,29.99,South,171,7.0,10.0,47,0.00,,,0.00,Wunderground v.1.15,2014-04-06 20:04:00,
2014-04-06 15:08:00,54.7,35.9,29.98,SE,134,7.0,15.0,49,0.00,,,0.00,Wunderground v.1.15,2014-04-06 20:08:00,
2014-04-06 15:14:00,54.8,33.8,29.99,South,185,6.0,9.0,45,0.00,,,0.00,Wunderground v.1.15,2014-04-06 20:14:00,
2014-04-06 15:16:00,54.8,32.7,29.99,SSW,201,7.0,9.0,43,0.00,,,0.00,Wunderground v.1.15,2014-04-06 20:16:00,
2014-04-06 15:18:00,54.8,32.7,29.99,SSE,150,7.0,9.0,43,0.00,,,0.00,Wunderground v.1.15,2014-04-06 20:18:00,
2014-04-06 15:22:00,54.9,35.0,29.99,South,174,8.0,10.0,47,0.00,,,0.00,Wunderground v.1.15,2014-04-06 20:22:00,
2014-04-06 15:24:00,55.0,35.1,29.99,ESE,111,7.0,10.0,47,0.00,,,0.00,Wunderground v.1.15,2014-04-06 20:24:00,
2014-04-06 15:26:00,54.9,33.9,29.99,SSE,160,7.0,10.0,45,0.00,,,0.00,Wunderground v.1.15,2014-04-06 20:26:00,
2014-04-06 15:28:00,54.9,34.5,29.99,South,186,7.0,10.0,46,0.00,,,0.00,Wunderground v.1.15,2014-04-06 20:28:00,
2014-04-06 15:32:00,54.9,35.0,29.98,South,180,6.0,6.0,47,0.00,,,0.00,Wunderground v.1.15,2014-04-06 20:32:00,
2014-04-06 15:34:00,55.0,35.1,29.98,SE,138,5.0,7.0,47,0.00,,,0.00,Wunderground v.1.15,2014-04-06 20:34:00,
2014-04-06 15:38:00,54.9,34.5,29.98,South,169,6.0,10.0,46,0.00,,,0.00,Wunderground v.1.15,2014-04-06 20:38:00,
2014-04-06 15:40:00,54.8,34.4,29.98,South,169,6.0,13.0,46,0.00,,,0.00,Wunderground v.1.15,2014-04-06 20:40:00,
2014-04-06 15:44:00,54.7,35.4,29.97,South,182,7.0,13.0,48,0.00,,,0.00,Wunderground v.1.15,2014-04-06 20:44:00,
2014-04-06 15:46:00,54.8,34.9,29.97,South,178,8.0,13.0,47,0.00,,,0.00,Wunderground v.1.15,2014-04-06 20:46:00,
2014-04-06 15:48:00,54.8,36.0,29.97,SSE,153,7.0,13.0,49,0.00,,,0.00,Wunderground v.1.15,2014-04-06 20:48:00,
2014-04-06 15:50:00,54.8,34.9,29.97,SSE,163,7.0,10.0,47,0.00,,,0.00,Wunderground v.1.15,2014-04-06 20:50:00,
2014-04-06 15:52:00,54.9,34.5,29.97,South,188,6.0,10.0,46,0.00,,,0.00,Wunderground v.1.15,2014-04-06 20:52:00,
2014-04-06 15:54:00,54.9,35.0,29.97,SSE,168,6.0,12.0,47,0.00,,,0.00,Wunderground v.1.15,2014-04-06 20:54:00,
2014-04-06 15:56:00,55.0,34.6,29.97,SSE,167,6.0,12.0,46,0.00,,,0.00,Wunderground v.1.15,2014-04-06 20:56:00,
2014-04-06 15:58:00,54.9,35.0,29.97,SSW,192,7.0,12.0,47,0.00,,,0.00,Wunderground v.1.15,2014-04-06 20:58:00,
2014-04-06 16:02:00,55.0,35.7,29.97,South,171,6.0,7.0,48,0.00,,,0.00,Wunderground v.1.15,2014-04-06 21:02:00,
2014-04-06 16:04:00,55.0,35.1,29.96,SSE,157,6.0,7.0,47,0.00,,,0.00,Wunderground v.1.15,2014-04-06 21:04:00,
2014-04-06 16:06:00,55.0,35.7,29.96,SSE,168,6.0,7.0,48,0.00,,,0.00,Wunderground v.1.15,2014-04-06 21:06:00,
2014-04-06 16:10:00,55.2,35.8,29.96,South,180,6.0,6.0,48,0.00,,,0.00,Wunderground v.1.15,2014-04-06 21:10:00,
2014-04-06 16:14:00,55.2,35.3,29.97,South,189,7.0,13.0,47,0.00,,,0.00,Wunderground v.1.15,2014-04-06 21:14:00,
2014-04-06 16:16:00,55.0,35.1,29.97,SSW,204,7.0,13.0,47,0.00,,,0.00,Wunderground v.1.15,2014-04-06 21:16:00,
2014-04-06 16:18:00,54.9,35.6,29.97,South,180,8.0,13.0,48,0.00,,,0.00,Wunderground v.1.15,2014-04-06 21:18:00,
2014-04-06 16:22:00,54.9,33.9,29.97,South,182,8.0,12.0,45,0.00,,,0.00,Wunderground v.1.15,2014-04-06 21:22:00,
2014-04-06 16:24:00,54.8,33.8,29.97,SE,138,8.0,12.0,45,0.00,,,0.00,Wunderground v.1.15,2014-04-06 21:24:00,
2014-04-06 16:26:00,54.8,33.8,29.97,South,175,7.0,12.0,45,0.00,,,0.00,Wunderground v.1.15,2014-04-06 21:26:00,
2014-04-06 16:28:00,54.7,34.8,29.97,SSW,197,7.0,12.0,47,0.00,,,0.00,Wunderground v.1.15,2014-04-06 21:28:00,
2014-04-06 16:30:00,54.8,34.9,29.96,SSW,198,6.0,6.0,47,0.00,,,0.00,Wunderground v.1.15,2014-04-06 21:30:00,
2014-04-06 16:32:00,54.8,34.4,29.97,South,172,6.0,6.0,46,0.00,,,0.00,Wunderground v.1.15,2014-04-06 21:32:00,
2014-04-06 16:36:00,54.8,33.3,29.96,SSE,167,6.0,6.0,44,0.00,,,0.00,Wunderground v.1.15,2014-04-06 21:36:00,
2014-04-06 16:38:00,54.8,33.8,29.96,ESE,122,5.0,8.0,45,0.00,,,0.00,Wunderground v.1.15,2014-04-06 21:38:00,
2014-04-06 16:44:00,54.7,34.3,29.96,SSE,154,6.0,11.0,46,0.00,,,0.00,Wunderground v.1.15,2014-04-06 21:44:00,
2014-04-06 16:48:00,54.7,33.8,29.97,SSE,164,6.0,11.0,45,0.00,,,0.00,Wunderground v.1.15,2014-04-06 21:48:00,
2014-04-06 16:50:00,54.8,34.4,29.96,SSE,148,6.0,6.0,46,0.00,,,0.00,Wunderground v.1.15,2014-04-06 21:50:00,
2014-04-06 16:54:00,54.8,34.4,29.96,SSE,148,6.0,7.0,46,0.00,,,0.00,Wunderground v.1.15,2014-04-06 21:54:00,
2014-04-06 16:56:00,54.8,34.4,29.96,SE,129,7.0,7.0,46,0.00,,,0.00,Wunderground v.1.15,2014-04-06 21:56:00,
2014-04-06 16:58:00,54.9,35.6,29.96,SSE,153,7.0,7.0,48,0.00,,,0.00,Wunderground v.1.15,2014-04-06 21:58:00,
2014-04-06 17:04:00,54.9,34.5,29.97,South,185,6.0,10.0,46,0.00,,,0.00,Wunderground v.1.15,2014-04-06 22:04:00,
2014-04-06 17:06:00,54.9,34.5,29.97,South,180,6.0,10.0,46,0.00,,,0.00,Wunderground v.1.15,2014-04-06 22:06:00,
2014-04-06 17:08:00,54.8,34.4,29.97,SSE,151,6.0,10.0,46,0.00,,,0.00,Wunderground v.1.15,2014-04-06 22:08:00,
2014-04-06 17:10:00,54.7,34.3,29.97,SSE,167,6.0,6.0,46,0.00,,,0.00,Wunderground v.1.15,2014-04-06 22:10:00,
2014-04-06 17:12:00,54.7,34.8,29.97,SSE,165,6.0,9.0,47,0.00,,,0.00,Wunderground v.1.15,2014-04-06 22:12:00,
2014-04-06 17:14:00,54.6,34.2,29.97,SSE,165,6.0,10.0,46,0.00,,,0.00,Wunderground v.1.15,2014-04-06 22:14:00,
2014-04-06 17:16:00,54.6,34.8,29.97,ESE,120,6.0,10.0,47,0.00,,,0.00,Wunderground v.1.15,2014-04-06 22:16:00,
2014-04-06 17:20:00,54.5,35.2,29.97,SSE,150,5.0,5.0,48,0.00,,,0.00,Wunderground v.1.15,2014-04-06 22:20:00,
2014-04-06 17:22:00,54.5,35.7,29.97,SSE,164,6.0,6.0,49,0.00,,,0.00,Wunderground v.1.15,2014-04-06 22:22:00,
2014-04-06 17:26:00,54.5,36.2,29.97,SE,131,6.0,8.0,50,0.00,,,0.00,Wunderground v.1.15,2014-04-06 22:26:00,
2014-04-06 17:30:00,54.5,35.7,29.97,South,175,5.0,6.0,49,0.00,,,0.00,Wunderground v.1.15,2014-04-06 22:30:00,
2014-04-06 17:34:00,54.6,35.8,29.96,South,181,6.0,6.0,49,0.00,,,0.00,Wunderground v.1.15,2014-04-06 22:34:00,
2014-04-06 17:36:00,54.6,35.8,29.96,South,178,6.0,6.0,49,0.00,,,0.00,Wunderground v.1.15,2014-04-06 22:36:00,
2014-04-06 17:38:00,54.6,35.8,29.96,South,175,6.0,7.0,49,0.00,,,0.00,Wunderground v.1.15,2014-04-06 22:38:00,
2014-04-06 17:40:00,54.6,35.8,29.97,SSE,163,6.0,6.0,49,0.00,,,0.00,Wunderground v.1.15,2014-04-06 22:40:00,
2014-04-06 17:44:00,54.6,35.8,29.97,South,177,6.0,7.0,49,0.00,,,0.00,Wunderground v.1.15,2014-04-06 22:44:00,
2014-04-06 17:46:00,54.6,36.3,29.97,SSW,205,5.0,10.0,50,0.00,,,0.00,Wunderground v.1.15,2014-04-06 22:46:00,
2014-04-06 17:48:00,54.6,36.3,29.97,SSE,153,6.0,10.0,50,0.00,,,0.00,Wunderground v.1.15,2014-04-06 22:48:00,
2014-04-06 17:50:00,54.5,36.7,29.97,South,178,5.0,5.0,51,0.00,,,0.00,Wunderground v.1.15,2014-04-06 22:50:00,
2014-04-06 17:52:00,54.5,36.2,29.97,South,190,5.0,5.0,50,0.00,,,0.00,Wunderground v.1.15,2014-04-06 22:52:00,
2014-04-06 17:54:00,54.4,36.1,29.97,South,182,5.0,7.0,50,0.00,,,0.00,Wunderground v.1.15,2014-04-06 22:54:00,
2014-04-06 17:56:00,54.3,35.5,29.97,SSE,158,5.0,7.0,49,0.00,,,0.00,Wunderground v.1.15,2014-04-06 22:56:00,
2014-04-06 18:02:00,54.2,35.9,29.97,South,187,5.0,5.0,50,0.00,,,0.00,Wunderground v.1.15,2014-04-06 23:02:00,
2014-04-06 18:04:00,54.2,35.4,29.97,South,180,5.0,5.0,49,0.00,,,0.00,Wunderground v.1.15,2014-04-06 23:04:00,
2014-04-06 18:06:00,54.1,35.3,29.97,South,172,4.0,5.0,49,0.00,,,0.00,Wunderground v.1.15,2014-04-06 23:06:00,
2014-04-06 18:10:00,54.1,35.9,29.97,SSE,149,4.0,4.0,50,0.00,,,0.00,Wunderground v.1.15,2014-04-06 23:10:00,
2014-04-06 18:12:00,54.0,35.8,29.97,SSE,161,4.0,4.0,50,0.00,,,0.00,Wunderground v.1.15,2014-04-06 23:12:00,
2014-04-06 18:14:00,54.0,36.3,29.97,SSE,162,4.0,5.0,51,0.00,,,0.00,Wunderground v.1.15,2014-04-06 23:14:00,
2014-04-06 18:18:00,54.0,35.8,29.97,South,189,4.0,5.0,50,0.00,,,0.00,Wunderground v.1.15,2014-04-06 23:18:00,
2014-04-06 18:20:00,54.1,36.4,29.96,South,188,4.0,5.0,51,0.00,,,0.00,Wunderground v.1.15,2014-04-06 23:20:00,
2014-04-06 18:22:00,54.1,36.4,29.97,South,188,4.0,5.0,51,0.00,,,0.00,Wunderground v.1.15,2014-04-06 23:22:00,
2014-04-06 18:26:00,54.1,36.4,29.96,South,180,4.0,6.0,51,0.00,,,0.00,Wunderground v.1.15,2014-04-06 23:26:00,
2014-04-06 18:30:00,54.2,36.5,29.96,South,180,3.0,3.0,51,0.00,,,0.00,Wunderground v.1.15,2014-04-06 23:30:00,
2014-04-06 18:32:00,54.2,36.5,29.96,South,180,3.0,3.0,51,0.00,,,0.00,Wunderground v.1.15,2014-04-06 23:32:00,
2014-04-06 18:38:00,54.2,36.5,29.95,South,179,1.0,3.0,51,0.00,,,0.00,Wunderground v.1.15,2014-04-06 23:38:00,
2014-04-06 18:40:00,54.2,36.5,29.95,South,180,2.0,3.0,51,0.00,,,0.00,Wunderground v.1.15,2014-04-06 23:40:00,
2014-04-06 18:44:00,54.2,36.5,29.95,South,180,2.0,4.0,51,0.00,,,0.00,Wunderground v.1.15,2014-04-06 23:44:00,
2014-04-06 18:46:00,54.2,36.5,29.95,South,180,2.0,4.0,51,0.00,,,0.00,Wunderground v.1.15,2014-04-06 23:46:00,
2014-04-06 18:48:00,54.2,36.5,29.95,South,180,2.0,4.0,51,0.00,,,0.00,Wunderground v.1.15,2014-04-06 23:48:00,
2014-04-06 18:50:00,54.1,36.4,29.94,South,180,2.0,2.0,51,0.00,,,0.00,Wunderground v.1.15,2014-04-06 23:50:00,
2014-04-06 18:52:00,54.0,36.3,29.95,South,180,2.0,4.0,51,0.00,,,0.00,Wunderground v.1.15,2014-04-06 23:52:00,
2014-04-06 18:54:00,53.9,36.2,29.95,South,180,2.0,4.0,51,0.00,,,0.00,Wunderground v.1.15,2014-04-06 23:54:00,
2014-04-06 18:56:00,53.8,36.6,29.95,South,180,2.0,4.0,52,0.00,,,0.00,Wunderground v.1.15,2014-04-06 23:56:00,
2014-04-06 19:00:00,53.7,36.5,29.95,South,179,2.0,2.0,52,0.00,,,0.00,Wunderground v.1.15,2014-04-07 00:00:00,
2014-04-06 19:02:00,53.5,36.3,29.95,South,180,2.0,2.0,52,0.00,,,0.00,Wunderground v.1.15,2014-04-07 00:02:00,
2014-04-06 19:04:00,53.5,36.3,29.95,South,180,2.0,3.0,52,0.00,,,0.00,Wunderground v.1.15,2014-04-07 00:04:00,
2014-04-06 19:06:00,53.3,36.6,29.95,South,180,2.0,3.0,53,0.00,,,0.00,Wunderground v.1.15,2014-04-07 00:06:00,
2014-04-06 19:08:00,53.3,36.6,29.95,South,180,3.0,4.0,53,0.00,,,0.00,Wunderground v.1.15,2014-04-07 00:08:00,
2014-04-06 19:14:00,52.9,36.7,29.95,South,180,3.0,4.0,54,0.00,,,0.00,Wunderground v.1.15,2014-04-07 00:14:00,
2014-04-06 19:18:00,52.7,37.0,29.96,South,180,3.0,4.0,55,0.00,,,0.00,Wunderground v.1.15,2014-04-07 00:18:00,
2014-04-06 19:20:00,52.6,36.9,29.96,South,180,2.0,2.0,55,0.00,,,0.00,Wunderground v.1.15,2014-04-07 00:20:00,
2014-04-06 19:22:00,52.4,36.7,29.96,South,180,2.0,3.0,55,0.00,,,0.00,Wunderground v.1.15,2014-04-07 00:22:00,
2014-04-06 19:26:00,52.2,37.0,29.96,South,180,2.0,3.0,56,0.00,,,0.00,Wunderground v.1.15,2014-04-07 00:26:00,
2014-04-06 19:28:00,52.2,37.0,29.96,South,180,2.0,3.0,56,0.00,,,0.00,Wunderground v.1.15,2014-04-07 00:28:00,
2014-04-06 19:32:00,51.9,36.7,29.96,South,180,1.0,1.0,56,0.00,,,0.00,Wunderground v.1.15,2014-04-07 00:32:00,
2014-04-06 19:36:00,51.7,36.9,29.96,South,180,1.0,1.0,57,0.00,,,0.00,Wunderground v.1.15,2014-04-07 00:36:00,
2014-04-06 19:40:00,51.5,36.8,29.96,South,180,1.0,1.0,57,0.00,,,0.00,Wunderground v.1.15,2014-04-07 00:40:00,
2014-04-06 19:42:00,51.4,37.1,29.96,South,180,1.0,1.0,58,0.00,,,0.00,Wunderground v.1.15,2014-04-07 00:42:00,
2014-04-06 19:44:00,51.3,37.0,29.97,South,180,1.0,1.0,58,0.00,,,0.00,Wunderground v.1.15,2014-04-07 00:44:00,
2014-04-06 19:46:00,51.2,36.9,29.97,South,180,1.0,1.0,58,0.00,,,0.00,Wunderground v.1.15,2014-04-07 00:46:00,
2014-04-06 19:50:00,51.0,36.7,29.97,South,180,0.0,0.0,58,0.00,,,0.00,Wunderground v.1.15,2014-04-07 00:50:00,
2014-04-06 19:54:00,50.9,37.1,29.97,South,180,1.0,2.0,59,0.00,,,0.00,Wunderground v.1.15,2014-04-07 00:54:00,
2014-04-06 19:56:00,50.8,37.0,29.97,South,180,1.0,2.0,59,0.00,,,0.00,Wunderground v.1.15,2014-04-07 00:56:00,
2014-04-06 20:00:00,50.7,36.9,29.97,South,180,2.0,2.0,59,0.00,,,0.00,Wunderground v.1.15,2014-04-07 01:00:00,
2014-04-06 20:02:00,50.6,36.8,29.97,South,180,2.0,3.0,59,0.00,,,0.00,Wunderground v.1.15,2014-04-07 01:02:00,
2014-04-06 20:04:00,50.5,36.7,29.97,South,180,2.0,3.0,59,0.00,,,0.00,Wunderground v.1.15,2014-04-07 01:04:00,
2014-04-06 20:06:00,50.5,36.7,29.97,South,180,2.0,3.0,59,0.00,,,0.00,Wunderground v.1.15,2014-04-07 01:06:00,
2014-04-06 20:10:00,50.4,36.6,29.96,South,180,1.0,2.0,59,0.00,,,0.00,Wunderground v.1.15,2014-04-07 01:10:00,
2014-04-06 20:14:00,50.3,36.5,29.96,South,180,1.0,3.0,59,0.00,,,0.00,Wunderground v.1.15,2014-04-07 01:14:00,
2014-04-06 20:18:00,50.3,36.5,29.96,South,180,1.0,3.0,59,0.00,,,0.00,Wunderground v.1.15,2014-04-07 01:18:00,
2014-04-06 20:20:00,50.2,36.4,29.96,South,180,1.0,1.0,59,0.00,,,0.00,Wunderground v.1.15,2014-04-07 01:20:00,
2014-04-06 20:22:00,50.2,36.4,29.96,South,180,1.0,1.0,59,0.00,,,0.00,Wunderground v.1.15,2014-04-07 01:22:00,
2014-04-06 20:24:00,50.1,35.9,29.96,South,180,0.0,1.0,58,0.00,,,0.00,Wunderground v.1.15,2014-04-07 01:24:00,
2014-04-06 20:30:00,49.9,35.7,29.96,South,180,0.0,0.0,58,0.00,,,0.00,Wunderground v.1.15,2014-04-07 01:30:00,
2014-04-06 20:32:00,49.9,36.1,29.96,South,180,0.0,0.0,59,0.00,,,0.00,Wunderground v.1.15,2014-04-07 01:32:00,
2014-04-06 20:38:00,49.8,36.0,29.97,South,180,0.0,0.0,59,0.00,,,0.00,Wunderground v.1.15,2014-04-07 01:38:00,
2014-04-06 20:42:00,49.7,35.9,29.97,South,180,0.0,0.0,59,0.00,,,0.00,Wunderground v.1.15,2014-04-07 01:42:00,
2014-04-06 20:44:00,49.6,35.8,29.97,South,180,0.0,0.0,59,0.00,,,0.00,Wunderground v.1.15,2014-04-07 01:44:00,
2014-04-06 20:50:00,49.4,35.7,29.96,South,180,0.0,0.0,59,0.00,,,0.00,Wunderground v.1.15,2014-04-07 01:50:00,
2014-04-06 20:52:00,49.4,36.1,29.97,South,180,0.0,0.0,60,0.00,,,0.00,Wunderground v.1.15,2014-04-07 01:52:00,
2014-04-06 20:54:00,49.3,36.0,29.96,South,180,0.0,0.0,60,0.00,,,0.00,Wunderground v.1.15,2014-04-07 01:54:00,
2014-04-06 20:56:00,49.2,35.9,29.96,South,180,0.0,0.0,60,0.00,,,0.00,Wunderground v.1.15,2014-04-07 01:56:00,
2014-04-06 20:58:00,49.1,35.8,29.96,South,180,0.0,0.0,60,0.00,,,0.00,Wunderground v.1.15,2014-04-07 01:58:00,
2014-04-06 21:00:00,49.0,35.7,29.96,South,180,0.0,0.0,60,0.00,,,0.00,Wunderground v.1.15,2014-04-07 02:00:00,
2014-04-06 21:02:00,49.0,35.7,29.96,South,180,0.0,0.0,60,0.00,,,0.00,Wunderground v.1.15,2014-04-07 02:02:00,
2014-04-06 21:04:00,48.8,35.5,29.97,South,180,0.0,0.0,60,0.00,,,0.00,Wunderground v.1.15,2014-04-07 02:04:00,
2014-04-06 21:06:00,48.7,35.8,29.97,South,180,0.0,0.0,61,0.00,,,0.00,Wunderground v.1.15,2014-04-07 02:06:00,
2014-04-06 21:08:00,48.6,36.2,29.97,South,180,0.0,0.0,62,0.00,,,0.00,Wunderground v.1.15,2014-04-07 02:08:00,
2014-04-06 21:10:00,48.5,36.1,29.96,South,180,0.0,0.0,62,0.00,,,0.00,Wunderground v.1.15,2014-04-07 02:10:00,
2014-04-06 21:14:00,48.3,35.9,29.97,South,180,0.0,0.0,62,0.00,,,0.00,Wunderground v.1.15,2014-04-07 02:14:00,
2014-04-06 21:16:00,48.1,35.7,29.97,South,180,0.0,0.0,62,0.00,,,0.00,Wunderground v.1.15,2014-04-07 02:16:00,
2014-04-06 21:18:00,48.0,35.6,29.97,South,180,0.0,0.0,62,0.00,,,0.00,Wunderground v.1.15,2014-04-07 02:18:00,
2014-04-06 21:22:00,47.7,35.7,29.97,South,180,0.0,0.0,63,0.00,,,0.00,Wunderground v.1.15,2014-04-07 02:22:00,
2014-04-06 21:26:00,47.4,35.4,29.97,South,180,0.0,0.0,63,0.00,,,0.00,Wunderground v.1.15,2014-04-07 02:26:00,
2014-04-06 21:30:00,47.2,35.6,29.96,South,180,0.0,0.0,64,0.00,,,0.00,Wunderground v.1.15,2014-04-07 02:30:00,
2014-04-06 21:32:00,47.1,35.5,29.96,South,180,0.0,0.0,64,0.00,,,0.00,Wunderground v.1.15,2014-04-07 02:32:00,
2014-04-06 21:36:00,46.8,35.3,29.96,South,180,0.0,0.0,64,0.00,,,0.00,Wunderground v.1.15,2014-04-07 02:36:00,
2014-04-06 21:38:00,46.8,35.3,29.96,South,180,0.0,0.0,64,0.00,,,0.00,Wunderground v.1.15,2014-04-07 02:38:00,
2014-04-06 21:42:00,46.6,35.1,29.96,South,180,0.0,0.0,64,0.00,,,0.00,Wunderground v.1.15,2014-04-07 02:42:00,
2014-04-06 21:44:00,46.5,35.0,29.95,South,180,0.0,0.0,64,0.00,,,0.00,Wunderground v.1.15,2014-04-07 02:44:00,
2014-04-06 21:48:00,46.4,35.3,29.95,South,180,0.0,0.0,65,0.00,,,0.00,Wunderground v.1.15,2014-04-07 02:48:00,
2014-04-06 21:50:00,46.3,35.2,29.95,South,180,0.0,0.0,65,0.00,,,0.00,Wunderground v.1.15,2014-04-07 02:50:00,
2014-04-06 21:52:00,46.2,35.1,29.95,South,180,0.0,0.0,65,0.00,,,0.00,Wunderground v.1.15,2014-04-07 02:52:00,
2014-04-06 21:54:00,46.1,35.0,29.95,South,180,0.0,0.0,65,0.00,,,0.00,Wunderground v.1.15,2014-04-07 02:54:00,
2014-04-06 21:56:00,46.0,34.9,29.95,South,180,0.0,0.0,65,0.00,,,0.00,Wunderground v.1.15,2014-04-07 02:56:00,
2014-04-06 22:02:00,45.8,35.1,29.95,South,180,0.0,0.0,66,0.00,,,0.00,Wunderground v.1.15,2014-04-07 03:02:00,
2014-04-06 22:04:00,45.7,35.0,29.95,South,180,0.0,0.0,66,0.00,,,0.00,Wunderground v.1.15,2014-04-07 03:04:00,
2014-04-06 22:06:00,45.6,35.3,29.95,South,180,0.0,0.0,67,0.00,,,0.00,Wunderground v.1.15,2014-04-07 03:06:00,
2014-04-06 22:10:00,45.4,35.1,29.95,South,180,0.0,0.0,67,0.00,,,0.00,Wunderground v.1.15,2014-04-07 03:10:00,
2014-04-06 22:14:00,45.1,35.2,29.95,South,180,0.0,0.0,68,0.00,,,0.00,Wunderground v.1.15,2014-04-07 03:14:00,
2014-04-06 22:16:00,45.1,35.2,29.95,South,180,0.0,0.0,68,0.00,,,0.00,Wunderground v.1.15,2014-04-07 03:16:00,
2014-04-06 22:20:00,44.9,35.0,29.94,South,180,0.0,0.0,68,0.00,,,0.00,Wunderground v.1.15,2014-04-07 03:20:00,
2014-04-06 22:22:00,44.9,35.0,29.94,South,180,0.0,0.0,68,0.00,,,0.00,Wunderground v.1.15,2014-04-07 03:22:00,
2014-04-06 22:26:00,44.7,35.1,29.94,South,180,0.0,1.0,69,0.00,,,0.00,Wunderground v.1.15,2014-04-07 03:26:00,
2014-04-06 22:28:00,44.7,35.1,29.94,South,180,0.0,1.0,69,0.00,,,0.00,Wunderground v.1.15,2014-04-07 03:28:00,
2014-04-06 22:30:00,44.6,35.1,29.94,South,180,0.0,0.0,69,0.00,,,0.00,Wunderground v.1.15,2014-04-07 03:30:00,
2014-04-06 22:32:00,44.6,35.1,29.94,South,180,0.0,0.0,69,0.00,,,0.00,Wunderground v.1.15,2014-04-07 03:32:00,
2014-04-06 22:34:00,44.6,35.1,29.94,South,180,0.0,0.0,69,0.00,,,0.00,Wunderground v.1.15,2014-04-07 03:34:00,
2014-04-06 22:36:00,44.6,35.4,29.94,South,180,0.0,0.0,70,0.00,,,0.00,Wunderground v.1.15,2014-04-07 03:36:00,
2014-04-06 22:38:00,44.7,35.1,29.94,South,180,0.0,0.0,69,0.00,,,0.00,Wunderground v.1.15,2014-04-07 03:38:00,
2014-04-06 22:42:00,44.8,35.2,29.94,South,180,0.0,0.0,69,0.00,,,0.00,Wunderground v.1.15,2014-04-07 03:42:00,
2014-04-06 22:46:00,44.9,35.3,29.94,South,180,0.0,0.0,69,0.00,,,0.00,Wunderground v.1.15,2014-04-07 03:46:00,
2014-04-06 22:48:00,44.9,35.3,29.94,South,180,0.0,0.0,69,0.00,,,0.00,Wunderground v.1.15,2014-04-07 03:48:00,
2014-04-06 22:54:00,44.7,35.1,29.93,South,180,0.0,0.0,69,0.00,,,0.00,Wunderground v.1.15,2014-04-07 03:54:00,
2014-04-06 22:56:00,44.7,35.1,29.94,South,180,0.0,0.0,69,0.00,,,0.00,Wunderground v.1.15,2014-04-07 03:56:00,
2014-04-06 22:58:00,44.7,35.1,29.94,South,180,0.0,0.0,69,0.00,,,0.00,Wunderground v.1.15,2014-04-07 03:58:00,
2014-04-06 23:04:00,44.5,35.0,29.94,South,180,0.0,3.0,69,0.00,,,0.00,Wunderground v.1.15,2014-04-07 04:04:00,
2014-04-06 23:06:00,44.5,35.0,29.94,South,180,0.0,3.0,69,0.00,,,0.00,Wunderground v.1.15,2014-04-07 04:06:00,
2014-04-06 23:12:00,44.3,34.8,29.94,South,180,0.0,0.0,69,0.00,,,0.00,Wunderground v.1.15,2014-04-07 04:12:00,
2014-04-06 23:14:00,44.3,34.8,29.94,South,180,0.0,0.0,69,0.00,,,0.00,Wunderground v.1.15,2014-04-07 04:14:00,
2014-04-06 23:16:00,44.3,35.1,29.94,South,180,0.0,0.0,70,0.00,,,0.00,Wunderground v.1.15,2014-04-07 04:16:00,
2014-04-06 23:18:00,44.3,35.1,29.94,South,180,0.0,0.0,70,0.00,,,0.00,Wunderground v.1.15,2014-04-07 04:18:00,
2014-04-06 23:20:00,44.3,35.1,29.94,South,180,0.0,0.0,70,0.00,,,0.00,Wunderground v.1.15,2014-04-07 04:20:00,
2014-04-06 23:24:00,44.2,35.0,29.94,South,180,0.0,1.0,70,0.00,,,0.00,Wunderground v.1.15,2014-04-07 04:24:00,
2014-04-06 23:26:00,44.2,35.0,29.94,South,180,0.0,1.0,70,0.00,,,0.00,Wunderground v.1.15,2014-04-07 04:26:00,
2014-04-06 23:30:00,44.3,35.1,29.94,South,180,0.0,0.0,70,0.00,,,0.00,Wunderground v.1.15,2014-04-07 04:30:00,
2014-04-06 23:32:00,44.3,35.1,29.94,South,180,0.0,0.0,70,0.00,,,0.00,Wunderground v.1.15,2014-04-07 04:32:00,
2014-04-06 23:36:00,44.3,35.1,29.94,South,180,0.0,0.0,70,0.00,,,0.00,Wunderground v.1.15,2014-04-07 04:36:00,
2014-04-06 23:38:00,44.3,34.8,29.94,South,180,0.0,0.0,69,0.00,,,0.00,Wunderground v.1.15,2014-04-07 04:38:00,
2014-04-06 23:42:00,44.3,34.8,29.94,South,180,0.0,0.0,69,0.00,,,0.00,Wunderground v.1.15,2014-04-07 04:42:00,
2014-04-06 23:44:00,44.4,34.9,29.93,South,180,0.0,0.0,69,0.00,,,0.00,Wunderground v.1.15,2014-04-07 04:44:00,
2014-04-06 23:48:00,44.4,34.9,29.93,South,180,0.0,1.0,69,0.00,,,0.00,Wunderground v.1.15,2014-04-07 04:48:00,
2014-04-06 23:50:00,44.5,35.0,29.93,South,180,1.0,1.0,69,0.00,,,0.00,Wunderground v.1.15,2014-04-07 04:50:00,
2014-04-06 23:54:00,44.5,35.0,29.93,South,180,1.0,1.0,69,0.00,,,0.00,Wunderground v.1.15,2014-04-07 04:54:00,
2014-04-06 23:56:00,44.5,35.0,29.93,South,180,0.0,1.0,69,0.00,,,0.00,Wunderground v.1.15,2014-04-07 04:56:00,